Time,TemperatureF,DewpointF,PressureIn,WindDirection,WindDirectionDegrees,WindSpeedMPH,WindSpeedGustMPH,Humidity,HourlyPrecipIn,Conditions,Clouds,dailyrainin,SolarRadiationWatts/m^2,SoftwareType,DateUTC
2013-10-07 00:01:00,55.0,30.0,-100.00,SW,227,14.0,22.0,38,0.00,,,0.00,0.000000,,2013-10-07 07:01:00,
2013-10-07 00:12:00,55.0,30.0,-100.00,SW,227,14.0,22.0,38,0.00,,,0.00,0.000000,,2013-10-07 07:12:00,
2013-10-07 00:22:00,55.0,30.0,-100.00,SW,227,14.0,22.0,38,0.00,,,0.00,0.000000,,2013-10-07 07:22:00,
2013-10-07 00:32:00,55.0,30.0,-100.00,SW,227,14.0,22.0,38,0.00,,,0.00,0.000000,,2013-10-07 07:32:00,
2013-10-07 00:52:00,53.0,29.0,-100.00,SW,218,7.0,18.0,39,-99.99,,,0.00,0.000000,,2013-10-07 07:52:00,
2013-10-07 01:03:00,53.0,29.0,-100.00,SW,218,7.0,18.0,39,-99.99,,,0.00,0.000000,,2013-10-07 08:03:00,
2013-10-07 01:11:00,53.0,29.0,-100.00,SW,218,7.0,18.0,39,-99.99,,,0.00,0.000000,,2013-10-07 08:11:00,
2013-10-07 01:21:00,53.0,29.0,-100.00,SW,218,7.0,18.0,39,-99.99,,,0.00,0.000000,,2013-10-07 08:21:00,
2013-10-07 01:32:00,53.0,29.0,-100.00,SW,218,7.0,18.0,39,-99.99,,,0.00,0.000000,,2013-10-07 08:32:00,
2013-10-07 01:52:00,51.0,29.0,-100.00,WSW,241,8.0,12.0,42,0.00,,,0.00,0.000000,,2013-10-07 08:52:00,
2013-10-07 02:02:00,51.0,29.0,-100.00,WSW,241,8.0,12.0,42,0.00,,,0.00,0.000000,,2013-10-07 09:02:00,
2013-10-07 02:11:00,51.0,29.0,-100.00,WSW,241,8.0,12.0,42,0.00,,,0.00,0.000000,,2013-10-07 09:11:00,
2013-10-07 02:21:00,51.0,29.0,-100.00,WSW,241,8.0,12.0,42,0.00,,,0.00,0.000000,,2013-10-07 09:21:00,
2013-10-07 02:33:00,51.0,29.0,-100.00,WSW,241,8.0,12.0,42,0.00,,,0.00,0.000000,,2013-10-07 09:33:00,
2013-10-07 02:54:00,51.0,28.0,-100.00,WSW,245,7.0,15.0,41,0.00,,,0.00,0.000000,,2013-10-07 09:54:00,
2013-10-07 03:03:00,51.0,28.0,-100.00,WSW,245,7.0,15.0,41,0.00,,,0.00,0.000000,,2013-10-07 10:03:00,
2013-10-07 03:13:00,51.0,28.0,-100.00,WSW,245,7.0,15.0,41,0.00,,,0.00,0.000000,,2013-10-07 10:13:00,
2013-10-07 03:23:00,51.0,28.0,-100.00,WSW,245,7.0,15.0,41,0.00,,,0.00,0.000000,,2013-10-07 10:23:00,
2013-10-07 03:33:00,51.0,28.0,-100.00,WSW,245,7.0,15.0,41,0.00,,,0.00,0.000000,,2013-10-07 10:33:00,
2013-10-07 03:53:00,51.0,24.0,-100.00,SW,235,8.0,20.0,34,0.00,,,0.00,0.000000,,2013-10-07 10:53:00,
2013-10-07 04:02:00,51.0,24.0,-100.00,SW,235,8.0,20.0,34,0.00,,,0.00,0.000000,,2013-10-07 11:02:00,
2013-10-07 04:12:00,51.0,24.0,-100.00,SW,235,8.0,20.0,34,0.00,,,0.00,0.000000,,2013-10-07 11:12:00,
2013-10-07 04:22:00,51.0,24.0,-100.00,SW,235,8.0,20.0,34,0.00,,,0.00,0.000000,,2013-10-07 11:22:00,
2013-10-07 04:33:00,51.0,24.0,-100.00,SW,235,8.0,20.0,34,0.00,,,0.00,0.000000,,2013-10-07 11:33:00,
2013-10-07 04:52:00,51.0,24.0,-100.00,WSW,238,8.0,13.0,35,0.00,,,-99.99,0.000000,,2013-10-07 11:52:00,
2013-10-07 05:02:00,51.0,24.0,-100.00,WSW,238,8.0,13.0,35,0.00,,,-99.99,0.000000,,2013-10-07 12:02:00,
2013-10-07 05:12:00,51.0,24.0,-100.00,WSW,238,8.0,13.0,35,0.00,,,-99.99,0.000000,,2013-10-07 12:12:00,
2013-10-07 05:21:00,51.0,24.0,-100.00,WSW,238,8.0,13.0,35,0.00,,,-99.99,0.000000,,2013-10-07 12:21:00,
2013-10-07 05:32:00,51.0,24.0,-100.00,WSW,238,8.0,13.0,35,0.00,,,-99.99,0.000000,,2013-10-07 12:32:00,
2013-10-07 05:52:00,47.0,21.0,-100.00,WNW,293,7.0,18.0,35,0.00,,,-99.99,0.000000,,2013-10-07 12:52:00,
2013-10-07 06:02:00,47.0,21.0,-100.00,WNW,293,7.0,18.0,35,0.00,,,-99.99,0.000000,,2013-10-07 13:02:00,
2013-10-07 06:11:00,47.0,21.0,-100.00,WNW,293,7.0,18.0,35,0.00,,,-99.99,0.000000,,2013-10-07 13:11:00,
2013-10-07 06:21:00,47.0,21.0,-100.00,WNW,293,7.0,18.0,35,0.00,,,-99.99,0.000000,,2013-10-07 13:21:00,
2013-10-07 06:32:00,47.0,21.0,-100.00,WNW,293,7.0,18.0,35,0.00,,,-99.99,0.000000,,2013-10-07 13:32:00,
2013-10-07 06:52:00,45.0,29.0,-100.00,West,274,6.0,10.0,53,0.00,,,0.00,0.000000,,2013-10-07 13:52:00,
2013-10-07 07:01:00,45.0,29.0,-100.00,West,274,6.0,10.0,53,0.00,,,0.00,0.000000,,2013-10-07 14:01:00,
2013-10-07 07:11:00,45.0,29.0,-100.00,West,274,6.0,10.0,53,0.00,,,0.00,0.000000,,2013-10-07 14:11:00,
2013-10-07 07:22:00,45.0,29.0,-100.00,West,274,6.0,10.0,53,0.00,,,0.00,0.000000,,2013-10-07 14:22:00,
2013-10-07 07:32:00,45.0,29.0,-100.00,West,274,6.0,10.0,53,0.00,,,0.00,0.000000,,2013-10-07 14:32:00,
2013-10-07 07:52:00,45.0,30.0,-100.00,West,277,8.0,15.0,56,0.00,,,0.00,2.000000,,2013-10-07 14:52:00,
2013-10-07 08:01:00,45.0,30.0,-100.00,West,277,8.0,15.0,56,0.00,,,0.00,2.000000,,2013-10-07 15:01:00,
2013-10-07 08:11:00,45.0,30.0,-100.00,West,277,8.0,15.0,56,0.00,,,0.00,2.000000,,2013-10-07 15:11:00,
2013-10-07 08:21:00,45.0,30.0,-100.00,West,277,8.0,15.0,56,0.00,,,0.00,2.000000,,2013-10-07 15:21:00,
2013-10-07 08:33:00,45.0,30.0,-100.00,West,277,8.0,15.0,56,0.00,,,0.00,2.000000,,2013-10-07 15:33:00,
2013-10-07 08:53:00,47.0,36.0,-100.00,West,274,8.0,15.0,65,0.00,,,0.00,108.000000,,2013-10-07 15:53:00,
2013-10-07 09:03:00,47.0,36.0,-100.00,West,274,8.0,15.0,65,0.00,,,0.00,108.000000,,2013-10-07 16:03:00,
2013-10-07 09:13:00,47.0,36.0,-100.00,West,274,8.0,15.0,65,0.00,,,0.00,108.000000,,2013-10-07 16:13:00,
2013-10-07 09:23:00,47.0,36.0,-100.00,West,274,8.0,15.0,65,0.00,,,0.00,108.000000,,2013-10-07 16:23:00,
2013-10-07 09:32:00,47.0,36.0,-100.00,West,274,8.0,15.0,65,0.00,,,0.00,108.000000,,2013-10-07 16:32:00,
2013-10-07 09:53:00,47.0,38.0,-100.00,WNW,299,10.0,20.0,72,0.00,,,0.00,343.000000,,2013-10-07 16:53:00,
2013-10-07 10:03:00,47.0,38.0,-100.00,WNW,299,10.0,20.0,72,0.00,,,0.00,343.000000,,2013-10-07 17:03:00,
2013-10-07 10:12:00,47.0,38.0,-100.00,WNW,299,10.0,20.0,72,0.00,,,0.00,343.000000,,2013-10-07 17:12:00,
2013-10-07 10:22:00,47.0,38.0,-100.00,WNW,299,10.0,20.0,72,0.00,,,0.00,343.000000,,2013-10-07 17:22:00,
2013-10-07 10:33:00,47.0,38.0,-100.00,WNW,299,10.0,20.0,72,0.00,,,0.00,343.000000,,2013-10-07 17:33:00,
2013-10-07 10:52:00,44.0,37.0,-100.00,NW,314,13.0,24.0,76,0.00,,,0.00,275.000000,,2013-10-07 17:52:00,
2013-10-07 11:02:00,44.0,37.0,-100.00,NW,314,13.0,24.0,76,0.00,,,0.00,275.000000,,2013-10-07 18:02:00,
2013-10-07 11:12:00,44.0,37.0,-100.00,NW,314,13.0,24.0,76,0.00,,,0.00,275.000000,,2013-10-07 18:12:00,
2013-10-07 11:22:00,44.0,37.0,-100.00,NW,314,13.0,24.0,76,0.00,,,0.00,275.000000,,2013-10-07 18:22:00,
2013-10-07 11:32:00,44.0,37.0,-100.00,NW,314,13.0,24.0,76,0.00,,,0.00,275.000000,,2013-10-07 18:32:00,
2013-10-07 11:52:00,44.0,36.0,-100.00,WNW,302,12.0,22.0,73,0.00,,,0.00,326.000000,,2013-10-07 18:52:00,
2013-10-07 12:02:00,44.0,36.0,-100.00,WNW,302,12.0,22.0,73,0.00,,,0.00,326.000000,,2013-10-07 19:02:00,
2013-10-07 12:11:00,44.0,36.0,-100.00,WNW,302,12.0,22.0,73,0.00,,,0.00,326.000000,,2013-10-07 19:11:00,
2013-10-07 12:22:00,44.0,36.0,-100.00,WNW,302,12.0,22.0,73,0.00,,,0.00,326.000000,,2013-10-07 19:22:00,
2013-10-07 12:32:00,44.0,36.0,-100.00,WNW,302,12.0,22.0,73,0.00,,,0.00,326.000000,,2013-10-07 19:32:00,
2013-10-07 12:53:00,46.0,36.0,-100.00,WNW,297,12.0,22.0,68,0.00,,,0.00,419.000000,,2013-10-07 19:53:00,
2013-10-07 13:02:00,46.0,36.0,-100.00,WNW,297,12.0,22.0,68,0.00,,,0.00,419.000000,,2013-10-07 20:02:00,
2013-10-07 13:12:00,46.0,36.0,-100.00,WNW,297,12.0,22.0,68,0.00,,,0.00,419.000000,,2013-10-07 20:12:00,
2013-10-07 13:22:00,46.0,36.0,-100.00,WNW,297,12.0,22.0,68,0.00,,,0.00,419.000000,,2013-10-07 20:22:00,
2013-10-07 13:32:00,46.0,36.0,-100.00,WNW,297,12.0,22.0,68,0.00,,,0.00,419.000000,,2013-10-07 20:32:00,
2013-10-07 13:34:00,50.0,37.0,-100.00,West,276,10.0,19.0,61,0.00,,,0.00,683.000000,,2013-10-07 20:34:00,
2013-10-07 13:52:00,50.0,37.0,-100.00,West,276,10.0,19.0,61,0.00,,,0.00,683.000000,,2013-10-07 20:52:00,
2013-10-07 14:02:00,50.0,37.0,-100.00,West,276,10.0,19.0,61,0.00,,,0.00,683.000000,,2013-10-07 21:02:00,
2013-10-07 14:12:00,50.0,37.0,-100.00,West,276,10.0,19.0,61,0.00,,,0.00,683.000000,,2013-10-07 21:12:00,
2013-10-07 14:23:00,50.0,37.0,-100.00,West,276,10.0,19.0,61,0.00,,,0.00,683.000000,,2013-10-07 21:23:00,
2013-10-07 14:55:00,49.0,37.0,-100.00,WNW,293,10.0,23.0,63,0.00,,,0.00,605.000000,,2013-10-07 21:55:00,
2013-10-07 15:04:00,49.0,37.0,-100.00,WNW,293,10.0,23.0,63,0.00,,,0.00,605.000000,,2013-10-07 22:04:00,
2013-10-07 15:13:00,49.0,37.0,-100.00,WNW,293,10.0,23.0,63,0.00,,,0.00,605.000000,,2013-10-07 22:13:00,
2013-10-07 15:24:00,49.0,37.0,-100.00,WNW,293,10.0,23.0,63,0.00,,,0.00,605.000000,,2013-10-07 22:24:00,
2013-10-07 15:33:00,49.0,37.0,-100.00,WNW,293,10.0,23.0,63,0.00,,,0.00,605.000000,,2013-10-07 22:33:00,
2013-10-07 15:53:00,49.0,36.0,-100.00,WSW,253,13.0,23.0,60,0.00,,,0.00,547.000000,,2013-10-07 22:53:00,
2013-10-07 16:02:00,49.0,36.0,-100.00,WSW,253,13.0,23.0,60,0.00,,,0.00,547.000000,,2013-10-07 23:02:00,
2013-10-07 16:12:00,49.0,36.0,-100.00,WSW,253,13.0,23.0,60,0.00,,,0.00,547.000000,,2013-10-07 23:12:00,
2013-10-07 16:22:00,49.0,36.0,-100.00,WSW,253,13.0,23.0,60,0.00,,,0.00,547.000000,,2013-10-07 23:22:00,
2013-10-07 16:33:00,49.0,36.0,-100.00,WSW,253,13.0,23.0,60,0.00,,,0.00,547.000000,,2013-10-07 23:33:00,
2013-10-07 16:52:00,47.0,36.0,-100.00,WSW,257,10.0,21.0,65,0.00,,,0.00,386.000000,,2013-10-07 23:52:00,
2013-10-07 17:02:00,47.0,36.0,-100.00,WSW,257,10.0,21.0,65,0.00,,,0.00,386.000000,,2013-10-08 00:02:00,
2013-10-07 17:11:00,47.0,36.0,-100.00,WSW,257,10.0,21.0,65,0.00,,,0.00,386.000000,,2013-10-08 00:11:00,
2013-10-07 17:21:00,47.0,36.0,-100.00,WSW,257,10.0,21.0,65,0.00,,,0.00,386.000000,,2013-10-08 00:21:00,
2013-10-07 17:31:00,47.0,36.0,-100.00,WSW,257,10.0,21.0,65,0.00,,,0.00,386.000000,,2013-10-08 00:31:00,
2013-10-07 17:52:00,43.0,35.0,-100.00,WSW,255,9.0,19.0,73,0.00,,,0.00,106.000000,,2013-10-08 00:52:00,
2013-10-07 18:02:00,43.0,35.0,-100.00,WSW,255,9.0,19.0,73,0.00,,,0.00,106.000000,,2013-10-08 01:02:00,
2013-10-07 18:12:00,43.0,35.0,-100.00,WSW,255,9.0,19.0,73,0.00,,,0.00,106.000000,,2013-10-08 01:12:00,
2013-10-07 18:21:00,43.0,35.0,-100.00,WSW,255,9.0,19.0,73,0.00,,,0.00,106.000000,,2013-10-08 01:21:00,
2013-10-07 18:32:00,43.0,35.0,-100.00,WSW,255,9.0,19.0,73,0.00,,,0.00,106.000000,,2013-10-08 01:32:00,
2013-10-07 18:52:00,41.0,34.0,-100.00,WSW,250,7.0,19.0,76,0.00,,,0.00,24.000000,,2013-10-08 01:52:00,
2013-10-07 19:03:00,41.0,34.0,-100.00,WSW,250,7.0,19.0,76,0.00,,,0.00,24.000000,,2013-10-08 02:03:00,
2013-10-07 19:11:00,41.0,34.0,-100.00,WSW,250,7.0,19.0,76,0.00,,,0.00,24.000000,,2013-10-08 02:11:00,
2013-10-07 19:21:00,41.0,34.0,-100.00,WSW,250,7.0,19.0,76,0.00,,,0.00,24.000000,,2013-10-08 02:21:00,
2013-10-07 19:32:00,41.0,34.0,-100.00,WSW,250,7.0,19.0,76,0.00,,,0.00,24.000000,,2013-10-08 02:32:00,
2013-10-07 19:52:00,41.0,35.0,-100.00,WSW,254,7.0,15.0,79,0.00,,,0.00,0.000000,,2013-10-08 02:52:00,
2013-10-07 20:02:00,41.0,35.0,-100.00,WSW,254,7.0,15.0,79,0.00,,,0.00,0.000000,,2013-10-08 03:02:00,
2013-10-07 20:11:00,41.0,35.0,-100.00,WSW,254,7.0,15.0,79,0.00,,,0.00,0.000000,,2013-10-08 03:11:00,
2013-10-07 20:22:00,41.0,35.0,-100.00,WSW,254,7.0,15.0,79,0.00,,,0.00,0.000000,,2013-10-08 03:22:00,
2013-10-07 20:33:00,41.0,35.0,-100.00,WSW,254,7.0,15.0,79,0.00,,,0.00,0.000000,,2013-10-08 03:33:00,
2013-10-07 20:34:00,40.0,34.0,-100.00,West,261,8.0,16.0,80,0.00,,,0.00,0.000000,,2013-10-08 03:34:00,
2013-10-07 20:55:00,40.0,34.0,-100.00,West,261,8.0,16.0,80,0.00,,,0.00,0.000000,,2013-10-08 03:55:00,
2013-10-07 21:04:00,40.0,34.0,-100.00,West,261,8.0,16.0,80,0.00,,,0.00,0.000000,,2013-10-08 04:04:00,
2013-10-07 21:14:00,40.0,34.0,-100.00,West,261,8.0,16.0,80,0.00,,,0.00,0.000000,,2013-10-08 04:14:00,
2013-10-07 21:23:00,40.0,34.0,-100.00,West,261,8.0,16.0,80,0.00,,,0.00,0.000000,,2013-10-08 04:23:00,
2013-10-07 21:53:00,39.0,34.0,-100.00,West,265,12.0,22.0,81,0.00,,,0.00,0.000000,,2013-10-08 04:53:00,
2013-10-07 22:03:00,39.0,34.0,-100.00,West,265,12.0,22.0,81,0.00,,,0.00,0.000000,,2013-10-08 05:03:00,
2013-10-07 22:13:00,39.0,34.0,-100.00,West,265,12.0,22.0,81,0.00,,,0.00,0.000000,,2013-10-08 05:13:00,
2013-10-07 22:22:00,39.0,34.0,-100.00,West,265,12.0,22.0,81,0.00,,,0.00,0.000000,,2013-10-08 05:22:00,
2013-10-07 22:33:00,39.0,34.0,-100.00,West,265,12.0,22.0,81,0.00,,,0.00,0.000000,,2013-10-08 05:33:00,
2013-10-07 22:53:00,37.0,33.0,-100.00,West,265,9.0,19.0,84,0.00,,,0.00,0.000000,,2013-10-08 05:53:00,
2013-10-07 23:02:00,37.0,33.0,-100.00,West,265,9.0,19.0,84,0.00,,,0.00,0.000000,,2013-10-08 06:02:00,
2013-10-07 23:12:00,37.0,33.0,-100.00,West,265,9.0,19.0,84,0.00,,,0.00,0.000000,,2013-10-08 06:12:00,
2013-10-07 23:22:00,37.0,33.0,-100.00,West,265,9.0,19.0,84,0.00,,,0.00,0.000000,,2013-10-08 06:22:00,
2013-10-07 23:32:00,37.0,33.0,-100.00,West,265,9.0,19.0,84,0.00,,,0.00,0.000000,,2013-10-08 06:32:00,
2013-10-07 23:52:00,38.0,33.0,-100.00,West,271,10.0,21.0,82,0.00,,,0.00,0.000000,,2013-10-08 06:52:00,